,,PA_Meas_PMT16A,,PR_Meas_QMR101_102,,RH_Meas_QMH101,,SR_Meas_QMS101,,TA_Meas_QMH101,,GenWind,,GenWind,
time,status,PA,status,PR,status,RH,status,SR,status,TA,status,DirAvg,status,SpdAvg,
2016-08-17, 00:00:04,VALID,914.953,VALID,0,VALID,57.3052,VALID,195.65,VALID,27.949,VALID,57,VALID,0,
2016-08-17, 00:01:04,VALID,914.973,VALID,0,VALID,57.9456,VALID,196.295,VALID,27.949,VALID,34,VALID,0,
2016-08-17, 00:02:04,VALID,914.976,VALID,0,VALID,57.8084,VALID,164.6,VALID,27.9881,VALID,17,VALID,1.03398,
2016-08-17, 00:03:04,VALID,914.993,VALID,0,VALID,57.5263,VALID,135.376,VALID,27.8513,VALID,324,VALID,0,
2016-08-17, 00:04:04,VALID,915.008,VALID,0,VALID,57.5111,VALID,120.764,VALID,27.7731,VALID,41,VALID,0,
2016-08-17, 00:05:04,VALID,914.99,VALID,0,VALID,58.4335,VALID,90.358,VALID,27.7927,VALID,58,VALID,0,
2016-08-17, 00:06:04,VALID,914.989,VALID,0,VALID,57.3738,VALID,69.0847,VALID,27.8296,VALID,356,VALID,0,
2016-08-17, 00:07:04,VALID,914.968,VALID,0,VALID,57.7398,VALID,86.3827,VALID,27.9511,VALID,26,VALID,0,
2016-08-17, 00:08:04,VALID,914.99,VALID,0,VALID,59.0205,VALID,72.6302,VALID,28.0879,VALID,10,VALID,0,
2016-08-17, 00:09:04,VALID,914.978,VALID,0,VALID,57.1299,VALID,54.5801,VALID,28.1682,VALID,293,VALID,0,
2016-08-17, 00:10:04,VALID,915.01,VALID,0,VALID,56.52,VALID,78.6469,VALID,28.1856,VALID,293,VALID,0,
2016-08-17, 00:11:04,VALID,915.043,VALID,0,VALID,57.168,VALID,95.0854,VALID,28.1877,VALID,1,VALID,0,
2016-08-17, 00:12:04,VALID,915.018,VALID,0,VALID,57.2137,VALID,87.3497,VALID,27.9532,VALID,348,VALID,0.0625,
2016-08-17, 00:13:04,VALID,915.004,VALID,0,VALID,57.6254,VALID,81.1181,VALID,27.7969,VALID,10,VALID,0,
2016-08-17, 00:14:04,VALID,915.013,VALID,0,VALID,58.3954,VALID,92.7217,VALID,27.6796,VALID,42,VALID,0,
2016-08-17, 00:15:04,VALID,915.11,VALID,0,VALID,59.1806,VALID,75.4237,VALID,27.5798,VALID,14,VALID,0,
2016-08-17, 00:16:04,VALID,915.099,VALID,0,VALID,59.7218,VALID,81.4404,VALID,27.5603,VALID,13,VALID,0,
2016-08-17, 00:17:04,VALID,915.121,VALID,0,VALID,59.638,VALID,140.64,VALID,27.4626,VALID,43,VALID,0,
2016-08-17, 00:18:04,VALID,915.125,VALID,0,VALID,60.1945,VALID,156.757,VALID,27.4235,VALID,29,VALID,0,
2016-08-17, 00:19:04,VALID,915.147,VALID,0,VALID,61.3609,VALID,155.575,VALID,27.404,VALID,30,VALID,0,
2016-08-17, 00:20:04,VALID,915.145,VALID,0,VALID,60.2174,VALID,150.203,VALID,27.4431,VALID,357,VALID,0,
2016-08-17, 00:21:04,VALID,915.161,VALID,0,VALID,58.6164,VALID,138.707,VALID,27.5212,VALID,357,VALID,0,
2016-08-17, 00:22:04,VALID,915.138,VALID,0,VALID,58.6393,VALID,133.334,VALID,27.5428,VALID,357,VALID,0,
2016-08-17, 00:23:04,VALID,915.145,VALID,0,VALID,59.051,VALID,137.954,VALID,27.5212,VALID,357,VALID,0,
2016-08-17, 00:24:04,VALID,915.097,VALID,0,VALID,59.9124,VALID,118.722,VALID,27.5017,VALID,357,VALID,0,
2016-08-17, 00:25:04,VALID,915.099,VALID,0,VALID,58.3573,VALID,95.9449,VALID,27.5233,INVALID,360,VALID,0,
2016-08-17, 00:26:04,VALID,915.054,VALID,0,VALID,59.1348,VALID,92.6143,VALID,27.5819,VALID,357,VALID,0,
2016-08-17, 00:27:04,VALID,915.054,VALID,0,VALID,59.0662,VALID,98.8459,VALID,27.621,VALID,278,VALID,0,
2016-08-17, 00:28:04,VALID,915.032,VALID,0,VALID,59.7371,VALID,93.1515,VALID,27.621,VALID,300,VALID,0,
2016-08-17, 00:29:04,VALID,915.031,VALID,0,VALID,60.9949,VALID,85.6306,VALID,27.5038,VALID,300,VALID,0,
2016-08-17, 00:30:04,VALID,915.05,VALID,0,VALID,60.0344,VALID,84.1264,VALID,27.4061,VALID,300,VALID,0,
2016-08-17, 00:31:04,VALID,915.018,VALID,0,VALID,59.6685,VALID,87.4571,VALID,27.3279,VALID,300,VALID,0,
2016-08-17, 00:32:04,VALID,914.998,VALID,0,VALID,59.9429,VALID,88.9613,VALID,27.2888,VALID,300,VALID,0,
2016-08-17, 00:33:04,VALID,914.996,VALID,0,VALID,61.7268,VALID,87.1348,VALID,27.0914,VALID,300,VALID,0,
2016-08-17, 00:34:04,VALID,915.047,VALID,0,VALID,62.7941,VALID,82.6222,VALID,26.9978,VALID,9,VALID,0,
2016-08-17, 00:35:04,VALID,915.019,VALID,0,VALID,62.6416,VALID,82.9446,VALID,26.8981,VALID,14,VALID,0,
2016-08-17, 00:36:04,VALID,915.055,VALID,0,VALID,63.2286,VALID,79.5065,VALID,26.7027,VALID,15,VALID,0,
2016-08-17, 00:37:04,VALID,915.059,VALID,0,VALID,62.512,VALID,79.2916,VALID,26.5269,VALID,15,VALID,0,
2016-08-17, 00:38:04,VALID,915.058,VALID,0,VALID,64.0748,VALID,78.6469,VALID,26.4077,VALID,15,VALID,0,
2016-08-17, 00:39:04,VALID,915.084,VALID,0,VALID,63.9986,VALID,74.5642,VALID,26.3706,VALID,15,VALID,0,
2016-08-17, 00:40:04,VALID,915.116,VALID,0,VALID,65.6224,VALID,68.7623,VALID,26.1948,VALID,15,VALID,0,
2016-08-17, 00:41:04,VALID,915.117,VALID,0,VALID,65.2793,VALID,67.473,VALID,26.019,VALID,15,VALID,0,
2016-08-17, 00:42:04,VALID,915.087,VALID,0,VALID,65.0811,VALID,62.3159,VALID,25.8628,VALID,14,VALID,0,
2016-08-17, 00:43:04,VALID,915.15,VALID,0,VALID,66.9946,VALID,57.5885,VALID,25.7066,VALID,11,VALID,0,
2016-08-17, 00:44:04,VALID,915.155,VALID,0,VALID,66.2475,VALID,55.0099,VALID,25.6284,VALID,356,VALID,0,
2016-08-17, 00:46:04,VALID,915.164,VALID,0,VALID,66.4305,VALID,46.7369,VALID,25.6675,VALID,6,VALID,0,
2016-08-17, 00:47:04,VALID,915.125,VALID,0,VALID,65.8358,VALID,46.0923,VALID,25.5874,VALID,10,VALID,0,
2016-08-17, 00:48:04,VALID,915.136,VALID,0,VALID,67.6426,VALID,50.175,VALID,25.5308,VALID,20,VALID,0,
2016-08-17, 00:49:04,VALID,915.123,VALID,0,VALID,66.7354,VALID,45.0178,VALID,25.4331,VALID,16,VALID,0,
2016-08-17, 00:50:04,VALID,915.089,VALID,0,VALID,67.1852,VALID,41.7946,VALID,25.3746,VALID,16,VALID,0,
2016-08-17, 00:51:04,VALID,915.11,VALID,0,VALID,68.4049,VALID,38.2491,VALID,25.357,VALID,16,VALID,0,
2016-08-17, 00:53:04,VALID,915.694,VALID,0,VALID,69.4722,VALID,33.6291,VALID,25.1793,VALID,18,VALID,0,
2016-08-17, 00:54:04,VALID,915.437,VALID,0,VALID,69.7695,VALID,35.3481,VALID,25.0817,VALID,19,VALID,0,
2016-08-17, 00:55:04,VALID,915.65,VALID,0,VALID,70.0516,VALID,39.1086,VALID,25.0055,VALID,18,VALID,0,
2016-08-17, 00:56:04,VALID,915.222,VALID,0,VALID,70.7148,VALID,42.3318,VALID,24.9469,VALID,19,VALID,0,
2016-08-17, 00:57:04,VALID,915.158,VALID,0,VALID,71.0045,VALID,42.3318,VALID,24.8883,VALID,18,VALID,0,
2016-08-17, 00:59:04,VALID,916.858,VALID,0,VALID,71.1341,VALID,29.9761,VALID,24.7516,VALID,18,VALID,0,
2016-08-17, 01:00:04,VALID,916.448,VALID,0,VALID,71.6754,VALID,30.0835,VALID,24.7321,VALID,18,VALID,0,
2016-08-17, 01:01:04,VALID,915.856,VALID,0,VALID,71.3704,VALID,31.1579,VALID,24.734,VALID,18,VALID,0,
2016-08-17, 01:02:04,VALID,915.087,VALID,0,VALID,71.1189,VALID,30.6207,VALID,24.7126,INVALID,360,VALID,0,
2016-08-17, 01:03:04,VALID,913.815,VALID,0,VALID,70.6157,VALID,27.3975,VALID,24.7126,VALID,353,VALID,0,
2016-08-17, 14:21:04,VALID,917.552,VALID,0,INVALID,112.461,VALID,109.483,VALID,19.7238,VALID,136,VALID,1.4375,
2016-08-17, 14:22:04,VALID,917.533,VALID,0,INVALID,111.592,VALID,112.813,VALID,19.7628,VALID,139,VALID,1.23242,
2016-08-17, 14:23:04,VALID,917.553,VALID,0,INVALID,110.593,VALID,115.929,VALID,19.8408,VALID,133,VALID,1.52227,
2016-08-17, 14:24:04,VALID,917.544,VALID,0,VALID,104,VALID,115.714,VALID,19.8588,VALID,130,VALID,1.89453,
2016-08-17, 14:25:04,VALID,917.501,VALID,0,INVALID,109.228,VALID,117.648,VALID,19.9383,VALID,132,VALID,1.91641,
2016-08-17, 14:26:04,VALID,917.521,VALID,0,INVALID,110.082,VALID,119.689,VALID,19.9968,VALID,125,VALID,1.98633,
2016-08-17, 14:27:04,VALID,917.46,VALID,0,INVALID,110.715,VALID,119.26,VALID,20.0343,VALID,135,VALID,1.72305,
2016-08-17, 14:28:04,VALID,917.504,VALID,0,INVALID,109.853,VALID,124.954,VALID,20.0733,VALID,132,VALID,1.83672,
2016-08-17, 14:29:04,VALID,917.473,VALID,0,VALID,104,VALID,134.516,VALID,20.1529,VALID,129,VALID,2.12461,
2016-08-17, 14:30:04,VALID,917.469,VALID,0,VALID,104,VALID,142.252,VALID,20.1708,VALID,131,VALID,1.90234,
2016-08-17, 14:31:04,VALID,917.427,VALID,0,VALID,104,VALID,152.996,VALID,20.2309,VALID,129,VALID,2.29102,
2016-08-17, 14:32:04,VALID,917.449,VALID,0,INVALID,110.006,VALID,159.55,VALID,20.2083,VALID,110,VALID,1.22344,
2016-08-17, 14:33:04,VALID,917.449,VALID,0,INVALID,110.379,VALID,162.236,VALID,20.2894,VALID,97,VALID,1.73984,
2016-08-17, 14:34:04,VALID,917.447,VALID,0,VALID,104,VALID,168.038,VALID,20.2504,VALID,93,VALID,1.60039,
2016-08-17, 14:35:04,VALID,917.477,VALID,0,INVALID,111.531,VALID,170.939,VALID,20.2309,VALID,83,VALID,1.25977,
2016-08-17, 14:36:04,VALID,917.476,VALID,0,INVALID,110.822,VALID,176.096,VALID,20.2309,VALID,88,VALID,1.70234,
2016-08-17, 14:37:04,VALID,917.505,VALID,0,INVALID,110.837,VALID,172.658,VALID,20.2699,VALID,133,VALID,0.939453,
2016-08-17, 14:38:04,VALID,917.497,VALID,0,VALID,104,VALID,172.658,VALID,20.3479,VALID,115,VALID,1.54766,
2016-08-17, 14:39:04,VALID,917.541,VALID,0,VALID,102.032,VALID,173.732,VALID,20.4454,VALID,119,VALID,0,
2016-08-17, 14:40:04,VALID,917.556,VALID,0,VALID,104,VALID,183.617,VALID,20.543,VALID,143,VALID,0,
2016-08-17, 14:41:04,VALID,917.574,VALID,0,VALID,104,VALID,187.7,VALID,20.678,VALID,140,VALID,0,
2016-08-17, 14:42:04,VALID,917.606,VALID,0,VALID,104,VALID,189.311,VALID,20.8551,VALID,162,VALID,0,
2016-08-17, 14:43:04,VALID,917.597,VALID,0,VALID,89.2092,VALID,195.006,VALID,20.8925,VALID,167,VALID,0,
2016-08-17, 14:44:04,VALID,917.565,VALID,0,VALID,87.5092,VALID,198.014,VALID,20.8925,VALID,161,VALID,0,
2016-08-17, 14:45:04,VALID,917.543,VALID,0,VALID,92.716,VALID,199.948,VALID,20.912,VALID,150,VALID,0,
2016-08-17, 14:46:04,VALID,917.576,VALID,0,VALID,92.5254,VALID,206.502,VALID,20.9527,VALID,153,VALID,0,
2016-08-17, 14:47:04,VALID,917.57,VALID,0,VALID,95.9026,VALID,206.609,VALID,21.0096,VALID,147,VALID,0,
2016-08-17, 14:48:04,VALID,917.565,VALID,0,VALID,94.0501,VALID,214.775,VALID,21.1266,VALID,151,VALID,0,
2016-08-17, 14:49:04,VALID,917.553,VALID,0,VALID,86.3276,VALID,220.254,VALID,21.2047,VALID,144,VALID,0,
2016-08-17, 14:50:04,VALID,917.542,VALID,0,VALID,85.9311,VALID,218.643,VALID,21.2827,VALID,152,VALID,0.544922,
2016-08-17, 14:51:04,VALID,917.529,VALID,0,VALID,83.8347,VALID,224.23,VALID,21.3608,VALID,156,VALID,1.24883,
2016-08-17, 14:52:04,VALID,917.572,VALID,0,VALID,83.5984,VALID,234.222,VALID,21.3786,VALID,150,VALID,1.3668,
2016-08-17, 14:53:04,VALID,917.597,VALID,0,VALID,82.4015,VALID,241.205,VALID,21.3998,VALID,154,VALID,1.45234,
2016-08-17, 14:54:04,VALID,917.61,VALID,0,VALID,82.9351,VALID,251.842,VALID,21.3786,VALID,172,VALID,0.715234,
2016-08-17, 14:55:04,VALID,917.624,VALID,0,VALID,82.2643,VALID,255.173,VALID,21.4973,VALID,163,VALID,0,
2016-08-17, 14:56:04,VALID,917.662,VALID,0,VALID,82.2567,VALID,254.206,VALID,21.5932,VALID,161,VALID,0,
2016-08-17, 14:57:04,VALID,917.677,VALID,0,VALID,82.5921,VALID,259.363,VALID,21.6518,VALID,149,VALID,0,
2016-08-17, 14:58:04,VALID,917.7,VALID,0,VALID,82.9199,VALID,260.115,VALID,21.7493,VALID,159,VALID,0,
2016-08-17, 14:59:04,VALID,917.674,VALID,0,VALID,81.136,VALID,255.925,VALID,21.79,VALID,143,VALID,0.425391,
2016-08-17, 15:00:04,VALID,917.66,VALID,0,VALID,82.8284,VALID,261.082,VALID,21.8095,VALID,125,VALID,0.407031,
2016-08-17, 15:01:04,VALID,917.643,VALID,0,VALID,84.1244,VALID,231.751,VALID,21.9266,VALID,136,VALID,0.434375,
2016-08-17, 15:02:04,VALID,917.694,VALID,0,VALID,82.5235,VALID,220.684,VALID,22.0242,VALID,131,VALID,0.896094,
2016-08-17, 15:03:04,VALID,917.722,VALID,0,VALID,82.3253,VALID,239.916,VALID,22.1022,VALID,104,VALID,0.571875,
2016-08-17, 15:04:04,VALID,917.779,VALID,0,VALID,81.1131,VALID,275.801,VALID,22.1005,VALID,103,VALID,1.47969,
2016-08-17, 15:05:04,VALID,917.77,VALID,0,VALID,81.9212,VALID,283.322,VALID,22.1981,VALID,101,VALID,0.0894531,
2016-08-17, 15:06:04,VALID,917.782,VALID,0,VALID,81.8907,VALID,281.173,VALID,22.3559,VALID,102,VALID,0.238281,
2016-08-17, 15:07:04,VALID,917.815,VALID,0,VALID,81.075,VALID,285.041,VALID,22.5121,VALID,137,VALID,0.389844,
2016-08-17, 15:08:04,VALID,917.795,VALID,0,VALID,80.9836,VALID,289.984,VALID,22.6292,VALID,100,VALID,0.284375,
2016-08-17, 15:09:04,VALID,917.791,VALID,0,VALID,78.6127,VALID,296.967,VALID,22.5494,VALID,106,VALID,2.20898,
2016-08-17, 15:10:04,VALID,917.801,VALID,0,VALID,78.1171,VALID,295.033,VALID,22.434,VALID,107,VALID,2.22227,
2016-08-17, 15:11:04,VALID,917.829,VALID,0,VALID,81.2427,VALID,287.405,VALID,22.4145,VALID,125,VALID,1.0918,
2016-08-17, 15:12:04,VALID,917.811,VALID,0,VALID,80.145,VALID,316.199,VALID,22.4323,VALID,126,VALID,1.91211,
2016-08-17, 15:13:04,VALID,917.772,VALID,0,VALID,80.2441,VALID,294.281,VALID,22.4713,VALID,113,VALID,1.29375,
2016-08-17, 15:14:04,VALID,917.788,VALID,0,VALID,80.5414,VALID,330.274,VALID,22.5494,VALID,128,VALID,0.269531,
2016-08-17, 15:15:04,VALID,917.745,VALID,0,VALID,80.6252,VALID,333.497,VALID,22.6274,VALID,121,VALID,0.237891,
2016-08-17, 15:16:04,VALID,917.714,VALID,0,VALID,78.8185,VALID,330.919,VALID,22.7038,VALID,163,VALID,0.55,
2016-08-17, 15:17:04,VALID,917.726,VALID,0,VALID,78.3687,VALID,326.621,VALID,22.7445,VALID,173,VALID,0.471094,
2016-08-17, 15:18:04,VALID,917.743,VALID,0,VALID,78.1171,VALID,326.943,VALID,22.8014,VALID,176,VALID,0,
2016-08-17, 15:19:04,VALID,917.758,VALID,0,VALID,78.5288,VALID,332.423,VALID,22.8226,VALID,159,VALID,1.12539,
2016-08-17, 15:20:04,VALID,917.732,VALID,0,VALID,76.4781,VALID,340.266,VALID,22.6665,VALID,152,VALID,1.71992,
2016-08-17, 15:21:04,VALID,917.722,VALID,0,VALID,78.4831,VALID,342.952,VALID,22.5299,VALID,153,VALID,1.67852,
2016-08-17, 15:22:04,VALID,917.682,VALID,0,VALID,77.8503,VALID,351.01,VALID,22.473,VALID,152,VALID,1.72461,
2016-08-17, 15:23:04,VALID,917.657,VALID,0,VALID,79.5122,VALID,352.085,VALID,22.473,VALID,149,VALID,1.87383,
2016-08-17, 15:24:04,VALID,917.605,VALID,0,VALID,80.8844,VALID,349.291,VALID,22.5884,VALID,134,VALID,0.780078,
2016-08-17, 15:25:04,VALID,917.628,VALID,0,VALID,79.6647,VALID,347.035,VALID,22.8031,VALID,122,VALID,0.413281,
2016-08-17, 15:26:04,VALID,917.601,VALID,0,VALID,78.3154,VALID,347.142,VALID,23.0763,VALID,100,VALID,1.44531,
2016-08-17, 15:27:04,VALID,917.601,VALID,0,VALID,77.6521,VALID,347.787,VALID,23.3123,VALID,120,VALID,0.824219,
2016-08-17, 15:28:04,VALID,917.602,VALID,0,VALID,76.5696,VALID,345.531,VALID,23.3301,VALID,114,VALID,1.3207,
2016-08-17, 15:29:04,VALID,917.572,VALID,0,VALID,77.5835,VALID,321.142,VALID,23.4259,VALID,97,VALID,0.289063,
2016-08-17, 15:30:04,VALID,917.567,VALID,0,VALID,73.8709,VALID,337.58,VALID,23.5253,VALID,127,VALID,2.65859,
2016-08-17, 15:31:04,VALID,917.56,VALID,0,VALID,73.2687,VALID,333.282,VALID,23.4472,VALID,122,VALID,2.22383,
2016-08-17, 15:32:04,VALID,917.541,VALID,0,VALID,75.9902,VALID,338.44,VALID,23.3301,VALID,130,VALID,1.325,
2016-08-17, 15:33:04,VALID,917.555,VALID,0,VALID,75.3575,VALID,339.621,VALID,23.3691,VALID,155,VALID,2.59687,
2016-08-17, 15:34:04,VALID,917.566,VALID,0,VALID,76.5315,VALID,362.614,VALID,23.2715,VALID,157,VALID,2.1582,
2016-08-17, 15:35:04,VALID,917.575,VALID,0,VALID,75.609,VALID,360.68,VALID,23.0959,VALID,149,VALID,1.64492,
2016-08-17, 15:36:04,VALID,917.56,VALID,0,VALID,77.7665,VALID,379.052,VALID,23.1527,VALID,170,VALID,1.65391,
2016-08-17, 15:37:04,VALID,917.59,VALID,0,VALID,77.492,VALID,317.166,VALID,23.2307,VALID,155,VALID,0.554688,
2016-08-17, 15:38:04,VALID,917.626,VALID,0,VALID,75.3346,VALID,392.805,VALID,23.229,VALID,149,VALID,1.2625,
2016-08-17, 15:39:04,VALID,917.638,VALID,0,VALID,76.6916,VALID,398.069,VALID,23.1899,VALID,167,VALID,1.43945,
2016-08-17, 15:40:04,VALID,917.672,VALID,0,VALID,76.844,VALID,399.144,VALID,23.1899,VALID,153,VALID,1.51406,
2016-08-17, 15:41:04,VALID,917.638,VALID,0,VALID,76.4934,VALID,399.789,VALID,23.1899,VALID,149,VALID,0.634375,
2016-08-17, 15:42:04,VALID,917.658,VALID,0,VALID,76.6153,VALID,408.061,VALID,23.1899,VALID,163,VALID,0.355859,
2016-08-17, 15:43:04,VALID,917.669,VALID,0,VALID,76.9736,VALID,409.028,VALID,23.3265,VALID,169,VALID,0.100391,
2016-08-17, 15:44:04,VALID,917.677,VALID,0,VALID,75.3194,VALID,412.144,VALID,23.5004,VALID,179,VALID,0.0636719,
2016-08-17, 15:45:04,VALID,917.705,VALID,0,VALID,75.4413,VALID,410.533,VALID,23.5998,VALID,165,VALID,0.927734,
2016-08-17, 15:46:04,VALID,917.687,VALID,0,VALID,74.9382,VALID,411.285,VALID,23.6211,VALID,150,VALID,1.36875,
2016-08-17, 15:47:04,VALID,917.638,VALID,0,VALID,75.2355,VALID,419.021,VALID,23.4827,VALID,141,VALID,1.68594,
2016-08-17, 15:48:04,VALID,917.648,VALID,0,VALID,73.0933,VALID,422.566,VALID,23.5998,VALID,186,VALID,0.603906,
2016-08-17, 15:49:04,VALID,917.654,VALID,0,VALID,73.9166,VALID,426.326,VALID,23.795,VALID,125,VALID,1.71914,
2016-08-17, 15:50:04,VALID,917.658,VALID,0,VALID,72.9332,VALID,422.459,VALID,23.8536,VALID,153,VALID,1.39102,
2016-08-17, 15:51:04,VALID,917.662,VALID,0,VALID,72.6816,VALID,418.054,VALID,23.8145,VALID,167,VALID,1.74102,
2016-08-17, 15:52:04,VALID,917.675,VALID,0,VALID,71.4771,VALID,404.516,VALID,23.834,VALID,161,VALID,1.97109,
2016-08-17, 15:53:04,VALID,917.696,VALID,0,VALID,72.3005,VALID,396.243,VALID,23.795,VALID,158,VALID,1.2625,
2016-08-17, 15:54:04,VALID,917.667,VALID,0,VALID,73.7489,VALID,383.78,VALID,23.9316,VALID,162,VALID,0,
2016-08-17, 15:55:04,VALID,917.69,VALID,0,VALID,72.8646,VALID,394.846,VALID,24.1464,VALID,191,VALID,0.00195313,
2016-08-17, 15:56:04,VALID,917.717,VALID,0,VALID,70.7987,VALID,414.293,VALID,24.283,VALID,183,VALID,0.00195313,
2016-08-17, 15:57:04,VALID,917.72,VALID,0,VALID,70.5623,VALID,418.268,VALID,24.4197,VALID,193,VALID,0,
2016-08-17, 15:58:04,VALID,917.745,VALID,0,VALID,70.913,VALID,407.417,VALID,24.5155,VALID,234,VALID,0,
2016-08-17, 15:59:04,VALID,917.743,VALID,0,VALID,70.1735,VALID,412.467,VALID,24.6149,VALID,239,VALID,0.135937,
2016-08-17, 16:00:04,VALID,917.744,VALID,0,VALID,70.3565,VALID,425.897,VALID,24.7126,VALID,210,VALID,0.517578,
2016-08-17, 16:01:04,VALID,917.75,VALID,0,VALID,70.3031,VALID,448.352,VALID,24.8297,VALID,201,VALID,0,
2016-08-17, 16:02:04,VALID,917.756,VALID,0,VALID,70.204,VALID,451.683,VALID,25.025,VALID,171,VALID,0,
2016-08-17, 16:03:04,VALID,917.732,VALID,0,VALID,68.1152,VALID,453.187,VALID,25.0836,VALID,246,VALID,0.389844,
2016-08-17, 16:04:04,VALID,917.709,VALID,0,VALID,68.504,VALID,456.732,VALID,25.0836,VALID,212,VALID,0,
2016-08-17, 16:05:04,VALID,917.75,VALID,0,VALID,66.4457,VALID,453.294,VALID,25.1226,VALID,223,VALID,0.463672,
2016-08-17, 16:06:04,VALID,917.706,VALID,0,VALID,65.1878,VALID,465.757,VALID,25.1031,VALID,219,VALID,0.716016,
2016-08-17, 16:07:04,VALID,917.75,VALID,0,VALID,66.7964,VALID,460.6,VALID,25.1031,VALID,212,VALID,0.105469,
2016-08-17, 16:08:04,VALID,917.715,VALID,0,VALID,66.4914,VALID,474.997,VALID,25.1031,VALID,225,VALID,0.00664063,
2016-08-17, 16:09:04,VALID,917.736,VALID,0,VALID,66.1026,VALID,476.501,VALID,25.1441,VALID,227,VALID,0.226172,
2016-08-17, 16:10:04,VALID,917.762,VALID,0,VALID,66.4914,VALID,453.294,VALID,25.1207,VALID,196,VALID,0.287109,
2016-08-17, 16:11:04,VALID,917.763,VALID,0,VALID,66.217,VALID,463.071,VALID,25.1617,VALID,217,VALID,0.684375,
2016-08-17, 16:12:04,VALID,917.771,VALID,0,VALID,67.6502,VALID,480.369,VALID,25.1988,VALID,198,VALID,0.171484,
2016-08-17, 16:13:04,VALID,917.789,VALID,0,VALID,66.3542,VALID,509.056,VALID,25.2984,VALID,205,VALID,0.338281,
2016-08-17, 16:14:04,VALID,917.8,VALID,0,VALID,64.4484,VALID,522.164,VALID,25.3746,VALID,219,VALID,0.00859375,
2016-08-17, 16:15:04,VALID,917.833,VALID,0,VALID,64.0672,VALID,516.255,VALID,25.4722,VALID,184,VALID,0,
2016-08-17, 16:16:04,VALID,917.837,VALID,0,VALID,64.5093,VALID,527.429,VALID,25.6284,VALID,185,VALID,0,
2016-08-17, 16:17:04,VALID,917.8,VALID,0,VALID,64.1282,VALID,531.082,VALID,25.8433,VALID,205,VALID,0,
2016-08-17, 16:18:04,VALID,917.789,VALID,0,VALID,63.3353,VALID,523.023,VALID,26.0015,VALID,162,VALID,0,
2016-08-17, 16:19:04,VALID,917.747,VALID,0,VALID,63.2439,VALID,523.668,VALID,26.0386,VALID,166,VALID,0.593359,
2016-08-17, 16:20:04,VALID,917.789,VALID,0,VALID,62.2604,VALID,532.908,VALID,26.019,VALID,186,VALID,0.0195313,
2016-08-17, 16:21:04,VALID,917.784,VALID,0,VALID,62.7331,VALID,537.206,VALID,26.0972,VALID,202,VALID,0,
2016-08-17, 16:22:04,VALID,917.829,VALID,0,VALID,60.8044,VALID,537.098,VALID,26.1948,VALID,200,VALID,0.10625,
2016-08-17, 16:23:04,VALID,917.831,VALID,0,VALID,59.8362,VALID,542.363,VALID,26.2925,VALID,185,VALID,0,
2016-08-17, 16:24:04,VALID,917.83,VALID,0,VALID,60.2174,VALID,526.677,VALID,26.3511,VALID,224,VALID,0,
2016-08-17, 16:25:04,VALID,917.907,VALID,0,VALID,60.9111,VALID,519.693,VALID,26.4878,VALID,197,VALID,0,
2016-08-17, 16:26:04,VALID,917.905,VALID,0,VALID,58.8299,VALID,528.181,VALID,26.5249,VALID,135,VALID,0,
2016-08-17, 16:27:04,VALID,917.91,VALID,0,VALID,58.5783,VALID,524.85,VALID,26.4683,VALID,232,VALID,0,
2016-08-17, 16:28:04,VALID,917.902,VALID,0,VALID,59.0434,VALID,521.09,VALID,26.3882,VALID,221,VALID,0,
2016-08-17, 16:29:04,VALID,917.952,VALID,0,VALID,59.5084,VALID,547.628,VALID,26.3686,VALID,168,VALID,0,
2016-08-17, 16:30:04,VALID,917.974,VALID,0,VALID,59.1043,VALID,558.801,VALID,26.3491,VALID,196,VALID,0,
2016-08-17, 16:31:04,VALID,917.999,VALID,0,VALID,60.6595,VALID,560.306,VALID,26.4077,VALID,216,VALID,0,
2016-08-17, 16:32:04,VALID,918.043,VALID,0,VALID,58.1972,VALID,547.198,VALID,26.564,VALID,197,VALID,0,
2016-08-17, 16:33:04,VALID,918.005,VALID,0,VALID,57.9227,VALID,559.231,VALID,26.7202,VALID,203,VALID,0,
2016-08-17, 16:34:04,VALID,918.047,VALID,0,VALID,56.8173,VALID,556.115,VALID,26.7027,VALID,160,VALID,0.371875,
2016-08-17, 16:35:04,VALID,918.053,VALID,0,VALID,57.8465,VALID,571.909,VALID,26.5269,VALID,171,VALID,0,
2016-08-17, 16:36:04,VALID,918.096,VALID,0,VALID,59.0205,VALID,562.992,VALID,26.605,VALID,195,VALID,0,
2016-08-17, 16:37:04,VALID,918.114,VALID,0,VALID,58.464,VALID,563.744,VALID,26.8004,VALID,195,VALID,0.173047,
2016-08-17, 16:38:04,VALID,918.105,VALID,0,VALID,60.1335,VALID,569.546,VALID,26.8785,VALID,188,VALID,0.0238281,
2016-08-17, 16:39:04,VALID,918.097,VALID,0,VALID,58.3877,VALID,584.695,VALID,26.8785,VALID,190,VALID,1.10664,
2016-08-17, 16:40:04,VALID,918.164,VALID,0,VALID,58.1895,VALID,580.182,VALID,26.8981,VALID,220,VALID,0,
2016-08-17, 16:41:04,VALID,918.141,VALID,0,VALID,60.0496,VALID,590.497,VALID,26.9176,VALID,202,VALID,0.00507812,
2016-08-17, 16:42:04,VALID,918.179,VALID,0,VALID,57.2366,VALID,597.158,VALID,26.9762,VALID,214,VALID,0.0140625,
2016-08-17, 16:43:04,VALID,918.229,VALID,0,VALID,58.7384,VALID,618.216,VALID,26.8765,VALID,194,VALID,0.510938,
2016-08-17, 16:44:04,VALID,918.269,VALID,0,VALID,57.7245,VALID,621.547,VALID,26.8765,VALID,187,VALID,0.267578,
2016-08-17, 16:45:04,VALID,918.274,VALID,0,VALID,55.9635,VALID,625.415,VALID,26.8179,VALID,212,VALID,0.191016,
2016-08-17, 16:46:04,VALID,918.3,VALID,0,VALID,54.4159,VALID,627.241,VALID,26.7788,VALID,191,VALID,0.548828,
2016-08-17, 16:47:04,VALID,918.343,VALID,0,VALID,53.1733,VALID,625.845,VALID,26.857,VALID,194,VALID,0,
2016-08-17, 16:48:04,VALID,918.371,VALID,0,VALID,52.472,VALID,629.39,VALID,26.9351,VALID,191,VALID,0.00585938,
2016-08-17, 16:49:04,VALID,918.384,VALID,0,VALID,52.3652,VALID,630.572,VALID,27.0328,VALID,214,VALID,0,
2016-08-17, 16:50:04,VALID,918.376,VALID,0,VALID,52.7464,VALID,612.522,VALID,27.0698,VALID,214,VALID,0,
2016-08-17, 16:51:04,VALID,918.354,VALID,0,VALID,52.998,VALID,633.58,VALID,27.15,VALID,145,VALID,0,
2016-08-17, 16:52:04,VALID,918.363,VALID,0,VALID,52.4034,VALID,634.01,VALID,27.3258,VALID,143,VALID,0,
2016-08-17, 16:53:04,VALID,918.354,VALID,0,VALID,51.7249,VALID,639.06,VALID,27.4821,VALID,177,VALID,0,
2016-08-17, 16:54:04,VALID,918.388,VALID,0,VALID,52.1518,VALID,641.209,VALID,27.5798,VALID,198,VALID,0.224609,
2016-08-17, 16:55:04,VALID,918.404,VALID,0,VALID,53.7451,VALID,647.011,VALID,27.658,VALID,259,VALID,0.102734,
2016-08-17, 16:56:04,VALID,918.388,VALID,0,VALID,53.9738,VALID,227.56,VALID,27.5212,VALID,216,VALID,0.124609,
2016-08-17, 16:57:04,VALID,918.391,VALID,0,VALID,52.7922,VALID,701.591,VALID,27.48,VALID,185,VALID,0.752734,
2016-08-17, 16:58:04,VALID,918.417,VALID,0,VALID,52.6168,VALID,330.274,VALID,27.5798,VALID,210,VALID,0.710547,
2016-08-17, 16:59:04,VALID,918.357,VALID,0,VALID,51.8392,VALID,660.441,VALID,27.5603,VALID,16,VALID,1.88711,
2016-08-17, 17:00:04,VALID,918.396,VALID,0,VALID,54.2863,VALID,668.929,VALID,27.2672,VALID,341,VALID,0.01875,